Regional Weather Roundup
Issued by NWS

Home | Current Version | Previous Version | Graphics & Text | Print | Product List | Glossary On
Versions: 1 2 3 4 5 6 7 8 9 10 11 12 13 14 15 16 17 18 19 20 21 22 23 24 25 26 27 28 29 30 31 32 33 34 35 36 37 38 39 40 41 42 43 44 45 46 47 48 49 50
000
ASUS43 KMKX 031811
RWRWI

WISCONSIN REGIONAL WEATHER ROUNDUP
NATIONAL WEATHER SERVICE MILWAUKEE/SULLIVAN WI
100 PM CDT MON AUG 03 2015

NOTE: "FAIR" INDICATES FEW OR NO CLOUDS BELOW 12,000 FEET WITH NO
SIGNIFICANT WEATHER AND/OR OBSTRUCTIONS TO VISIBILITY.

WIZ001-002-006>008-014>016-023>028-031900-
NORTHWEST WISCONSIN

CITY           SKY/WX    TMP DP  RH WIND       PRES   REMARKS
SUPERIOR ARPT  CLOUDY    68  54  60 W10G18    29.84F
6HR MIN TEMP:  59; 6HR MAX TEMP:  71;

ASHLAND        CLOUDY    68  54  60 W7        29.83S
6HR MIN TEMP:  55; 6HR MAX TEMP:  71;

HAYWARD        CLOUDY    69  50  50 NW10      29.86S
6HR MIN TEMP:  54; 6HR MAX TEMP:  70;

SIREN          PTSUNNY   72  51  46 N13G20    29.88S
6HR MIN TEMP:  56; 6HR MAX TEMP:  72;

CUMBERLAND     MOSUNNY   70  52  52 NW20      29.88S
RICE LAKE      MOSUNNY   72  52  49 NW14G21   29.89S
6HR MIN TEMP:  54; 6HR MAX TEMP:  72;

CHETEK         MOSUNNY   72  55  54 W6        29.87S
6HR MIN TEMP:  59; 6HR MAX TEMP:  73;

LADYSMITH      PTSUNNY   72  52  50 NW16      29.88S
6HR MIN TEMP:  57; 6HR MAX TEMP:  72;

EAU CLAIRE     MOSUNNY   76  50  40 W21G26    29.86S
6HR MIN TEMP:  58; 6HR MAX TEMP:  77;

MENOMONIE      SUNNY     77  46  33 NW15G30   29.88S
6HR MIN TEMP:  60; 6HR MAX TEMP:  77;

NEW RICHMOND   SUNNY     73  49  43 NW14G23   29.90S
6HR MIN TEMP:  56; 6HR MAX TEMP:  73;

OSCEOLA        SUNNY     73  48  41 NW15G24   29.93S
6HR MIN TEMP:  54; 6HR MAX TEMP:  74;

$$

WIZ003>005-009-010-017-018-031900-
NORTH CENTRAL WISCONSIN

CITY           SKY/WX    TMP DP  RH WIND       PRES   REMARKS
MANITOWISH WTR CLOUDY    64  52  64 NW9       29.84R
6HR MIN TEMP:  55; 6HR MAX TEMP:  66;

ARBOR VITAE    PTSUNNY   68  52  58 NW12G17   29.83S
6HR MIN TEMP:  57; 6HR MAX TEMP:  69;

WOODRUFF       PTSUNNY   68  52  58 NW12G17   29.83S
6HR MIN TEMP:  57; 6HR MAX TEMP:  69;

RHINELANDER    CLOUDY    69  51  52 W14G21    29.84R
6HR MIN TEMP:  55; 6HR MAX TEMP:  69;

EAGLE RIVER    PTSUNNY   65  48  54 NW9G20    29.82S
6HR MIN TEMP:  56; 6HR MAX TEMP:  67;

LAND O LAKES   CLOUDY    67  50  54 W12G18    29.83R
6HR MIN TEMP:  57; 6HR MAX TEMP:  67; 6HR PCP:  0.01;

PHILLIPS       CLOUDY    68  53  59 W7G17     29.84R
6HR MIN TEMP:  52; 6HR MAX TEMP:  68;

TOMAHAWK       CLOUDY    69  52  53 W13       29.84S
6HR MIN TEMP:  52; 6HR MAX TEMP:  69;

MEDFORD        PTSUNNY   71  53  54 NW12      29.86R
6HR MIN TEMP:  54; 6HR MAX TEMP:  71;

MERRILL        NOT AVBL
$$

WIZ029-030-035-036-043>047-031900-
CENTRAL WISCONSIN

CITY           SKY/WX    TMP DP  RH WIND       PRES   REMARKS
WAUSAU         MOSUNNY   74  49  41 NW14G26   29.82S
6HR MIN TEMP:  57; 6HR MAX TEMP:  75;

MOSINEE        MOSUNNY   72  48  43 W17G25    29.84F
MARSHFIELD     SUNNY     77  48  35 NW15G22   29.85S
6HR MIN TEMP:  56; 6HR MAX TEMP:  77;

STEVENS POINT  MOSUNNY   72  47  41 NW15G21   29.85S
6HR MIN TEMP:  57; 6HR MAX TEMP:  72;

WAUPACA        MOSUNNY   78  45  31 W9G18     29.83F
6HR MIN TEMP:  61; 6HR MAX TEMP:  78;

WAUTOMA        MOSUNNY   80  45  29 W18       29.84F
6HR MIN TEMP:  60; 6HR MAX TEMP:  80;

WISC RAPIDS    SUNNY     77  44  30 NW14G26   29.86S
6HR MIN TEMP:  58; 6HR MAX TEMP:  78;

CAMP DOUGLAS   MOSUNNY   77  50  38 W17G26    29.87S
$$

WIZ011>013-019>022-031-037>040-048>050-031900-
NORTHEAST WISCONSIN

CITY           SKY/WX    TMP DP  RH WIND       PRES   REMARKS
ANTIGO         MOSUNNY   72  50  46 NW14      29.83R
SHAWANO        MOSUNNY   76  48  37 W14G21    29.80S
6HR MIN TEMP:  59; 6HR MAX TEMP:  76;

OCONTO         PTSUNNY   74  50  42 W10       29.78S
6HR MIN TEMP:  57; 6HR MAX TEMP:  74;

STURGEON BAY   CLOUDY    72  54  53 SW12      29.81R
6HR MIN TEMP:  61; 6HR MAX TEMP:  72;

GREEN BAY      MOSUNNY   75  54  47 W16       29.81R
6HR MIN TEMP:  60; 6HR MAX TEMP:  76;

MANITOWOC      CLOUDY    73  49  42 MISG      29.81S
6HR MIN TEMP:  62; 6HR MAX TEMP:  76;

APPLETON       PTSUNNY   73  43  33 NW14G23   29.84R
CLINTONVILLE   SUNNY     75  43  31 NW15G22   29.81S
OSHKOSH        PTSUNNY   75  48  38 NW15G30   29.82F
6HR MIN TEMP:  61; 6HR MAX TEMP:  76;

$$

WIZ032>034-041-042-053>061-031900-
SOUTHWEST WISCONSIN

CITY           SKY/WX    TMP DP  RH WIND       PRES   REMARKS
LA CROSSE      SUNNY     79  48  33 NW15      29.89S
6HR MIN TEMP:  62; 6HR MAX TEMP:  80;

SPARTA         MOSUNNY   78  43  28 NW17G25   29.89S
6HR MIN TEMP:  53; 6HR MAX TEMP:  78;

VIROQUA        MOSUNNY   75  50  40 W12G18    29.92S
6HR MIN TEMP:  57; 6HR MAX TEMP:  75;

BOSCOBEL       SUNNY     81  50  33 W16       29.90F HX  80
6HR MIN TEMP:  58; 6HR MAX TEMP:  82;

PRAIRIE DU CHI SUNNY     80  43  27 W9G23     29.90F
6HR MIN TEMP:  61; 6HR MAX TEMP:  80;

PLATTEVILLE    SUNNY     77  51  40 W14G21    29.92F
6HR MIN TEMP:  61; 6HR MAX TEMP:  77;

$$

WIZ056-057-062-063-064-067-068-031900-
SOUTH CENTRAL WISCONSIN

CITY           SKY/WX    TMP DP  RH WIND       PRES   REMARKS
REEDSBURG      SUNNY     78  46  32 W13G21    29.88S
6HR MIN TEMP:  59; 6HR MAX TEMP:  80;

BARABOO/DELLS  MOSUNNY   78  42  28 W10G28    29.88S
6HR MIN TEMP:  60; 6HR MAX TEMP:  78;

LONE ROCK      MOSUNNY   79  47  32 NW15      29.89F
6HR MIN TEMP:  60; 6HR MAX TEMP:  80;

MINERAL POINT  SUNNY     77  43  29 W12G18    29.92S
MADISON        MOSUNNY   77  48  35 W12G18    29.87F
6HR MIN TEMP:  64; 6HR MAX TEMP:  78;

MIDDLETON      SUNNY     80  43  26 W16       29.88F
6HR MIN TEMP:  62; 6HR MAX TEMP:  80;

WATERTOWN      SUNNY     77  48  36 W15G24    29.86S
6HR MIN TEMP:  61; 6HR MAX TEMP:  77;

MONROE         SUNNY     77  46  33 NW12G18   29.90F
JANESVILLE     SUNNY     81  43  26 W16       29.88F
$$

WIZ051-052-058>065-066-070>072-031900-
SOUTHEAST WISCONSIN

CITY           SKY/WX    TMP DP  RH WIND       PRES   REMARKS
MILWAUKEE      MOSUNNY   79  43  27 W18G28    29.84S
6HR MIN TEMP:  67; 6HR MAX TEMP:  79;

WAUKESHA       MOSUNNY   73  43  33 NW18G29   29.87R
MILWAUKEE/TIMM SUNNY     77  41  27 NW21G28   29.85S
RACINE         SUNNY     79  46  31 NW15G25   29.86S
6HR MIN TEMP:  65; 6HR MAX TEMP:  79;

BURLINGTON     SUNNY     77  43  29 W13G21    29.86F
6HR MIN TEMP:  62; 6HR MAX TEMP:  77;

KENOSHA        SUNNY     77  50  38 NW10      29.86S
6HR MIN TEMP:  65; 6HR MAX TEMP:  78;

FOND DU LAC    FAIR      77  49  37 NW17G25   29.84S
6HR MIN TEMP:  62; 6HR MAX TEMP:  77;

SHEBOYGAN      MOSUNNY   74  49  41 W15G25    29.83R
6HR MIN TEMP:  62; 6HR MAX TEMP:  74;

WEST BEND      PTSUNNY   73  45  35 W14G23    29.84F
JUNEAU         MOSUNNY   75  49  40 W9        29.86F
6HR MIN TEMP:  61; 6HR MAX TEMP:  75;

$$

LSZ147-162-031900-
LAKE SUPERIOR

STATION/POSITION TIME  TEMP    WIND        PRES    WAVE
                       AIR SEA DIR/SP/G            HT/PER
                 (UTC) (F)     (DEG/KT/KT) (MB)    (FT/S)
W MID LAKE BUOY  1750   58 56  240/ 12/ 14 1008.2R   2/ 4
DEVILS ISLAND    1800   63     240/ 14/ 18 1009.2S
PORT WING        1700   63     270/ 11/ 15 1010.2R
SAXON HARBOR     1700   66                 1009.5
$$

LMZ867-665-643>646-031900-
LAKE MICHIGAN

STATION/POSITION TIME  TEMP    WIND        PRES    WAVE
                       AIR SEA DIR/SP/G            HT/PER
                 (UTC) (F)     (DEG/KT/KT) (MB)    (FT/S)
CHAMBERS ISLAND  1700   67     180/  4/ 10 1008.1S



USA.gov is the U.S. government's official web portal to all federal, state and local government web resources and services.